Wind_Speed
42 43 44 44 45 46 47 48 48 50 51 53 54 55 55 56 56 56 56 56 56 57 57 57 57 57 57 57 56 56 54 53 52 52 51 49 51 51 48 48 49 49 50 52 53 52 51 50 50 50 50 50 50 50 49 49 50 51 51 50 48 45 42 37 33 32 29 24 23 26 28 30 34 37 38 38 36 33 34 37 43 49 51 50 47 46 46 44
41 42 42 43 44 45 46 47 48 49 50 51 52 54 55 56 57 58 58 58 58 58 58 58 58 58 58 58 58 57 56 54 53 53 53 52 53 52 49 49 49 48 49 51 52 53 52 51 52 52 52 51 50 49 50 49 50 50 50 49 44 42 40 36 34 33 30 27 25 27 28 28 32 35 38 39 37 34 35 37 40 45 50 51 48 47 46 45
39 40 41 42 42 43 44 45 46 48 49 50 51 53 54 55 57 58 59 59 60 60 60 60 59 59 59 59 58 58 57 56 55 55 55 54 53 52 50 50 50 49 48 50 51 52 53 52 53 53 52 51 50 49 49 49 49 49 49 47 42 40 41 38 37 34 31 29 28 29 29 28 31 35 37 39 39 37 36 37 40 44 48 49 47 47 46 45
38 38 39 40 41 42 43 44 45 46 47 49 50 51 53 54 55 57 58 59 60 61 61 62 61 61 60 60 59 59 58 57 56 57 57 55 54 53 51 51 52 51 49 50 50 52 52 52 53 53 53 52 50 49 50 49 49 49 48 45 41 40 41 39 37 35 33 31 30 30 30 30 32 34 36 38 39 39 38 38 40 44 46 46 45 45 45 45
36 37 38 39 40 41 42 43 44 45 46 48 49 50 51 53 54 56 57 58 59 60 61 62 62 63 63 62 61 60 59 58 57 57 58 57 56 54 52 52 53 52 50 50 50 51 51 52 52 53 53 52 51 50 50 48 47 47 46 43 42 41 40 37 37 36 35 34 32 31 31 32 34 35 36 36 38 39 40 40 41 43 44 44 44 42 42 43
36 37 38 39 40 41 42 44 45 46 47 48 49 50 51 52 53 55 56 57 58 59 60 61 62 63 63 63 63 62 61 59 58 57 58 58 58 56 54 53 52 51 50 49 49 49 50 51 52 52 52 51 51 50 49 46 45 46 44 43 43 41 39 36 36 37 37 37 35 33 33 34 35 35 35 36 37 39 41 42 42 43 43 44 41 39 40 42
38 38 40 41 42 43 44 46 47 48 49 49 50 51 52 53 54 55 55 56 57 58 59 60 61 62 63 63 63 64 62 60 59 59 59 59 59 58 56 54 52 51 50 49 49 49 49 50 50 51 51 50 50 50 48 46 46 47 45 44 42 40 38 35 35 36 37 38 37 35 35 36 35 35 36 36 36 39 41 41 42 43 43 43 39 38 40 41
41 42 43 44 45 46 48 49 50 51 52 53 53 54 55 55 56 56 56 57 57 58 59 60 61 61 62 62 63 63 61 60 62 62 61 59 58 57 57 56 54 52 51 50 50 49 49 49 49 50 51 49 49 48 47 47 48 49 46 43 41 40 37 34 34 36 37 38 38 38 38 37 36 37 38 36 36 40 40 39 40 41 42 41 39 39 40 39
44 45 46 47 48 50 51 52 53 54 55 56 57 57 58 58 59 59 59 59 59 59 59 60 60 60 61 61 62 61 58 60 64 64 62 60 58 57 57 56 55 53 52 51 51 51 50 49 49 49 49 48 47 47 48 49 50 50 47 42 41 39 36 35 35 36 37 38 39 40 40 38 37 39 40 37 37 40 40 38 37 38 40 40 40 40 39 38
48 49 50 51 52 53 53 54 55 56 57 58 59 60 61 61 62 62 62 62 62 61 61 61 60 61 61 61 62 58 54 59 64 63 62 62 62 59 58 57 56 55 53 52 51 51 50 49 48 48 49 48 49 49 49 51 51 50 47 42 41 40 37 37 37 36 37 39 40 41 41 39 39 42 42 38 38 39 39 38 35 35 36 38 38 38 40 38
51 52 53 54 55 56 57 58 58 59 60 61 61 62 63 63 64 64 65 65 65 64 63 63 62 62 62 62 61 54 52 59 63 62 60 61 62 62 60 59 57 56 54 53 51 50 49 49 48 49 49 49 50 50 50 51 51 50 48 45 43 42 40 39 38 38 38 39 40 41 42 41 42 45 43 38 40 40 38 37 35 33 31 31 33 35 39 40
54 55 56 57 58 59 60 61 62 62 62 63 64 64 64 65 65 66 66 66 67 66 66 65 65 64 63 63 59 52 54 59 61 62 59 57 59 60 61 61 59 57 55 54 52 50 49 49 50 50 49 48 49 49 50 51 51 50 50 47 44 43 42 40 39 38 39 40 39 41 44 45 45 47 42 39 42 42 38 35 34 31 26 25 29 33 37 40
56 58 59 60 61 62 63 64 64 64 64 65 65 65 65 65 66 66 66 67 67 68 67 67 68 67 66 63 56 53 58 60 60 60 57 55 56 58 59 60 59 58 56 54 53 51 50 50 51 50 49 48 48 49 50 50 50 50 50 50 46 46 45 42 39 38 40 40 38 42 46 45 45 46 43 42 44 42 38 35 33 29 24 25 29 31 33 36
59 60 61 62 63 63 64 64 65 65 65 65 64 64 64 64 64 64 64 65 65 67 67 68 68 69 69 63 55 56 60 60 58 56 55 56 56 57 58 57 57 57 56 55 55 53 52 51 52 51 49 48 47 48 49 49 49 49 50 51 49 49 47 42 39 38 39 39 39 43 45 43 44 45 44 44 44 42 38 36 33 29 25 27 30 30 30 31
62 62 63 63 63 63 63 63 63 64 63 63 63 63 63 63 63 63 62 62 63 65 65 66 67 68 69 63 56 58 60 57 55 55 57 58 56 55 56 56 55 56 56 55 56 55 54 53 53 52 51 48 47 48 48 49 49 49 51 52 51 51 48 43 41 39 37 37 39 43 44 41 42 44 44 44 43 41 39 36 33 30 28 30 31 31 30 30
64 64 64 64 63 63 63 62 62 61 60 60 60 60 61 62 62 62 61 61 62 62 63 63 64 67 67 62 58 60 60 57 55 57 58 58 55 52 54 56 55 55 54 54 55 55 54 54 54 53 52 50 48 48 48 49 49 50 51 51 51 51 49 44 42 40 36 36 39 42 43 40 40 42 43 43 42 39 37 34 32 31 31 31 32 32 32 33
64 64 63 63 62 62 61 61 60 58 56 55 55 56 57 58 59 60 60 61 61 60 61 61 62 64 63 60 60 60 60 56 55 56 57 57 54 51 53 55 54 54 54 54 55 55 55 55 55 55 54 52 50 49 51 51 51 52 52 52 52 51 49 45 42 40 37 36 39 41 42 40 38 39 41 41 39 37 33 31 31 31 31 32 33 34 34 34
63 63 62 62 61 61 61 59 58 55 51 50 50 49 50 52 53 55 56 58 59 59 59 59 60 61 58 57 59 60 58 56 55 54 55 55 52 50 52 52 51 52 53 55 55 56 56 57 56 57 56 55 54 54 54 53 52 52 51 50 49 48 48 45 42 40 38 36 38 40 41 39 35 35 36 37 35 31 28 29 31 32 33 34 36 36 35 34
62 62 62 62 61 60 58 55 54 50 45 43 42 42 43 45 45 47 49 50 52 54 56 57 58 58 56 55 57 58 58 57 56 55 55 56 53 51 52 51 51 52 53 55 57 57 58 59 59 59 59 58 57 56 55 53 49 48 47 46 45 45 45 43 41 40 38 37 38 38 39 37 32 29 30 33 31 26 24 27 30 33 36 37 38 38 35 34
61 62 62 62 60 56 51 48 48 45 39 36 34 34 36 37 37 39 40 42 44 47 50 53 56 56 55 55 55 57 57 56 55 55 56 57 55 52 52 53 52 53 53 54 57 58 59 61 61 59 58 58 57 55 54 51 48 46 45 45 44 44 44 42 40 40 40 40 39 38 38 37 31 26 26 29 29 26 25 27 29 33 37 39 39 38 36 35
60 61 62 61 57 51 46 43 43 41 36 33 31 31 32 32 31 32 32 32 35 40 43 46 52 54 53 53 53 55 57 56 54 55 56 57 56 53 52 53 54 54 53 54 57 59 60 61 59 57 57 57 56 54 53 51 47 46 46 45 44 44 44 42 40 40 41 42 41 39 39 38 33 28 25 26 29 28 28 29 31 34 38 40 39 38 36 35
59 61 63 59 52 47 43 41 41 40 36 33 31 31 31 31 31 31 30 25 24 31 37 42 47 49 50 51 52 55 55 53 53 54 55 57 56 53 52 53 54 52 52 54 57 59 60 58 56 56 56 56 55 54 53 51 48 47 47 46 45 45 44 42 41 41 43 44 42 40 40 39 35 31 29 29 30 31 31 32 33 36 39 40 39 37 36 35
58 62 61 55 48 44 43 41 39 37 34 31 30 30 31 31 31 31 32 28 22 23 32 39 41 42 45 46 50 53 51 48 49 52 54 56 56 54 53 53 53 52 52 52 54 56 57 56 55 56 55 55 55 54 53 52 49 49 49 48 46 44 44 43 41 39 41 43 42 40 41 41 37 35 34 33 33 33 33 34 35 36 37 38 38 37 36 36
57 60 58 52 45 42 43 40 36 33 29 28 27 28 29 30 31 32 34 34 26 24 31 35 36 37 39 41 45 49 47 45 47 51 54 56 56 54 53 53 54 53 51 49 50 52 53 54 54 54 54 55 55 54 54 52 50 50 49 48 46 43 42 40 37 36 37 41 42 41 45 46 42 40 38 35 35 35 34 34 35 35 34 35 37 37 36 36
56 57 55 48 42 41 40 36 32 28 25 24 24 26 27 29 32 33 35 36 31 29 31 31 31 33 34 36 39 44 46 44 45 49 54 55 55 53 52 54 54 52 49 47 49 50 52 53 53 53 53 54 54 53 52 50 49 49 48 46 44 42 40 36 34 34 37 41 41 41 46 48 45 43 40 36 36 37 35 35 34 34 33 32 33 34 35 35
55 54 51 45 41 39 36 31 29 24 20 21 22 24 26 26 27 29 34 35 28 24 23 24 26 26 28 31 34 39 43 42 43 48 51 52 54 53 52 53 54 52 49 48 49 50 51 53 52 52 52 52 52 51 49 48 47 46 45 44 43 41 39 36 34 35 37 39 39 39 44 46 44 44 42 38 38 38 36 35 34 33 32 30 30 32 33 33
53 52 48 42 40 37 30 27 25 21 19 20 20 20 21 22 24 28 28 21 12 5 8 14 21 21 23 28 30 34 38 39 42 45 46 49 51 51 51 53 55 54 52 51 51 49 50 52 52 52 52 52 52 50 49 48 47 46 44 43 43 41 38 35 33 36 36 36 35 37 42 44 42 42 41 40 40 40 38 36 34 33 31 29 28 30 29 28
51 50 45 40 38 33 24 24 23 20 19 17 16 17 18 21 22 21 17 14 14 5 3 6 16 21 22 24 26 29 33 37 40 43 44 46 48 49 49 52 54 55 54 52 50 48 50 52 51 51 52 52 51 49 48 48 48 46 44 43 41 39 35 32 32 35 33 33 35 37 40 43 42 39 39 41 42 42 40 35 33 33 30 28 27 27 25 25
50 48 43 38 35 28 22 23 22 20 18 15 16 18 21 21 20 17 14 16 18 7 0 7 9 19 21 20 23 26 30 34 40 44 44 43 46 47 47 50 54 54 53 51 49 49 51 50 49 49 50 50 50 49 48 48 47 44 42 41 40 38 35 33 34 34 32 35 37 36 39 42 41 37 38 40 40 41 39 33 32 33 30 28 27 26 24 24
49 46 41 36 32 26 22 21 19 18 18 18 21 23 23 22 19 18 17 16 16 9 3 6 2 14 19 16 18 23 28 33 40 43 43 43 45 46 47 50 54 53 52 51 50 50 49 49 49 50 49 48 48 48 47 47 46 42 40 40 40 38 36 35 36 34 34 40 38 35 37 41 41 37 37 39 38 37 37 33 32 32 30 29 27 25 24 23
47 45 40 35 31 26 22 20 19 21 22 23 25 25 24 21 18 19 18 16 14 10 6 5 1 8 14 13 14 20 28 33 38 41 43 45 46 47 48 50 53 53 52 52 51 50 50 50 49 49 49 48 47 46 47 46 44 41 40 41 40 39 37 37 37 37 40 44 38 34 36 40 42 38 34 36 36 34 34 33 31 29 28 28 26 25 24 22
45 43 38 35 31 24 20 21 23 24 22 24 26 25 23 20 19 19 17 16 14 11 7 3 1 3 9 10 11 19 26 31 35 38 42 45 46 48 48 49 52 54 53 52 51 50 50 49 47 49 50 49 48 48 49 48 46 44 44 44 43 41 40 41 43 43 45 45 38 34 35 40 43 39 33 33 34 33 34 33 30 28 28 28 27 25 23 21
43 42 38 33 29 23 20 22 24 22 19 21 26 25 23 21 20 20 17 15 13 10 8 5 5 6 3 5 9 17 25 29 33 37 40 43 45 47 48 49 51 53 53 52 51 51 51 49 49 51 52 50 49 50 51 51 50 49 47 47 47 46 46 47 47 46 47 45 37 33 37 42 44 39 33 32 32 32 34 34 33 30 27 26 26 25 23 21
41 40 38 33 28 23 21 22 23 23 21 21 24 24 22 20 19 17 15 14 11 8 7 8 9 7 3 1 6 15 23 28 32 35 38 41 45 47 49 50 51 53 54 53 52 51 50 50 49 50 51 51 50 49 49 49 49 48 48 48 49 48 47 47 47 47 47 43 36 35 40 44 43 39 32 30 30 31 33 35 35 32 28 26 26 26 25 22
40 38 36 33 30 26 23 21 23 26 24 23 23 22 20 19 17 14 12 11 9 6 6 8 9 7 6 7 5 9 18 26 30 34 37 40 43 45 47 49 50 53 54 53 52 49 48 48 48 48 48 49 50 48 47 47 47 46 47 49 50 48 46 45 45 45 44 41 36 37 41 43 41 37 31 29 29 29 31 33 32 30 29 27 27 27 25 22
39 37 34 32 29 26 23 22 24 27 25 23 21 21 20 19 17 13 10 8 7 5 6 8 8 7 10 13 9 6 12 22 28 31 35 38 41 43 45 47 49 51 53 52 50 49 47 47 47 46 46 47 48 47 47 49 47 47 49 50 48 46 45 44 43 42 42 39 37 38 40 41 39 35 32 30 29 28 28 27 26 26 28 28 26 25 24 22
38 37 34 31 28 25 23 23 25 26 24 22 21 20 19 19 17 12 10 9 7 4 6 7 7 7 11 14 11 9 11 19 25 28 33 37 39 41 44 45 48 49 49 48 47 47 47 46 46 45 44 44 45 45 46 47 46 46 49 49 47 45 45 43 42 42 42 40 39 39 39 39 37 35 33 31 29 27 25 23 21 21 24 26 24 23 24 24
36 36 35 32 29 27 25 24 26 26 24 23 22 19 18 17 15 11 9 9 7 6 6 6 7 9 12 12 11 10 10 15 22 27 32 36 37 39 41 44 46 47 45 43 43 45 45 44 44 44 43 41 43 44 45 45 43 43 45 46 45 45 46 46 45 44 44 43 41 41 40 39 38 35 32 31 29 26 23 22 18 16 20 23 23 25 26 25
36 35 34 33 31 29 28 25 25 25 23 23 22 21 19 17 14 11 9 7 7 7 6 5 7 8 13 11 8 9 10 12 18 24 29 33 35 37 39 42 44 45 44 41 41 43 43 41 41 42 40 40 42 46 47 46 44 43 43 43 42 43 45 45 45 44 44 44 44 42 41 41 39 35 33 31 28 25 22 20 17 15 18 22 24 25 25 22
37 34 32 32 31 31 30 27 25 23 22 21 22 21 17 15 14 11 9 7 7 8 8 7 7 7 12 11 8 9 11 11 13 17 22 28 34 36 38 40 43 44 42 40 40 41 41 39 38 38 37 39 42 44 46 46 46 46 44 44 44 44 44 44 45 45 44 45 45 43 42 41 39 36 34 33 29 26 23 20 18 17 17 20 22 24 23 22
36 33 31 31 31 31 31 29 26 24 23 22 22 23 19 14 12 11 9 7 10 14 13 10 10 12 14 12 9 9 10 10 11 13 17 24 30 34 36 38 41 43 42 39 38 39 39 38 37 36 37 39 39 40 41 43 44 43 42 44 46 46 45 45 46 47 46 45 45 45 42 41 40 38 36 35 32 29 25 21 20 21 19 19 20 22 23 22
35 34 32 31 31 30 31 31 29 27 26 22 21 23 22 16 11 11 9 7 12 16 14 14 15 17 17 14 12 10 10 10 11 13 16 21 27 33 36 35 37 42 41 38 36 36 37 37 36 37 38 38 37 37 38 39 40 40 39 42 45 45 45 46 46 46 46 45 44 45 43 41 41 40 38 37 35 32 27 23 23 23 22 20 20 22 24 23
35 34 33 32 30 29 29 30 29 28 26 24 22 22 22 17 11 10 10 9 13 13 14 15 16 17 16 13 11 12 15 13 13 14 15 19 24 30 35 36 37 40 40 36 35 36 36 35 35 37 38 36 34 34 34 36 38 40 39 41 44 45 44 43 42 43 43 44 43 43 42 41 41 40 38 37 37 35 29 25 25 25 24 22 21 22 24 24
35 34 33 31 30 27 25 25 26 26 25 25 25 23 20 16 12 11 11 10 12 12 11 11 13 14 13 11 10 13 17 15 14 16 17 19 23 28 34 37 37 39 38 36 36 36 35 34 36 38 37 35 34 35 37 38 40 40 40 40 42 43 42 41 41 41 40 41 42 40 39 38 39 38 36 35 37 36 32 28 28 27 25 24 23 22 24 26
34 35 34 32 30 27 24 22 21 22 23 23 23 22 18 14 13 12 11 10 10 10 10 11 11 11 8 9 12 15 17 16 14 15 17 18 19 26 34 35 36 38 38 37 37 36 35 35 37 38 37 37 38 39 41 42 42 42 41 40 41 41 41 40 40 41 38 37 38 38 35 33 34 36 34 34 36 37 36 34 33 31 27 25 25 24 25 26
32 33 34 33 32 30 27 22 19 19 20 21 21 20 18 15 13 12 10 9 9 9 10 10 11 10 9 11 14 15 17 18 15 15 17 16 17 26 33 33 35 39 39 39 40 38 36 37 37 37 35 35 37 39 39 40 41 42 41 41 40 40 40 40 39 40 38 34 32 32 29 26 26 29 29 28 29 32 36 37 37 36 32 29 27 26 25 26
31 31 31 31 31 32 30 26 22 20 19 18 19 19 18 16 15 13 10 8 9 9 8 8 10 11 12 13 14 13 15 18 17 15 14 15 19 28 31 32 36 40 40 41 41 39 37 38 38 37 36 34 34 36 37 37 38 40 41 40 39 39 40 40 39 39 38 35 29 27 26 23 22 24 25 23 21 22 28 31 32 36 37 34 30 28 27 27
31 32 31 29 29 30 29 27 24 21 18 17 17 18 17 17 15 13 10 8 8 9 8 8 9 9 8 9 10 10 13 18 17 13 12 18 25 30 33 35 38 40 41 42 42 39 37 39 40 39 38 35 34 35 36 36 37 38 39 38 37 38 39 39 40 39 39 37 31 26 26 25 25 25 25 24 22 20 23 25 26 32 38 38 33 30 30 29
28 30 29 28 28 28 28 27 25 23 21 19 17 17 17 17 15 12 10 9 8 7 6 6 7 7 7 8 9 11 16 19 16 13 16 23 29 33 37 39 40 40 41 42 42 38 37 39 40 40 39 37 36 35 35 35 36 37 38 37 35 35 36 38 40 41 40 38 34 29 27 27 28 25 22 23 24 23 23 24 26 30 35 36 34 32 32 31
23 25 26 26 26 25 26 25 25 25 24 23 21 20 19 17 15 13 12 10 9 7 5 5 6 7 9 10 11 15 20 20 16 14 19 26 31 35 38 39 39 38 39 42 42 38 36 39 40 40 40 39 37 36 35 35 36 36 37 37 35 34 35 35 38 40 40 39 37 34 29 27 26 22 20 22 24 25 26 27 28 31 34 35 35 34 33 31
20 21 23 24 24 23 22 23 23 24 23 22 21 20 19 18 16 16 16 14 10 7 4 5 7 8 10 11 15 21 24 22 16 16 23 30 33 35 37 37 37 36 37 41 42 37 34 36 39 39 40 39 38 37 36 35 35 34 35 37 36 35 34 33 33 35 37 39 39 37 33 29 24 21 22 24 25 26 29 29 30 32 33 34 35 34 33 32
20 20 20 21 21 20 20 20 21 21 21 19 19 20 20 20 20 20 20 18 12 6 5 7 8 9 10 12 16 22 24 20 16 19 27 32 35 36 36 36 35 33 35 40 42 37 31 33 37 38 39 40 39 37 37 36 34 34 35 35 35 35 34 32 31 31 34 38 40 39 36 32 26 23 24 25 26 25 26 29 31 31 32 33 34 34 34 32
Wind_Direction
278 276 275 273 272 270 269 268 267 265 264 263 263 262 261 260 259 258 258 257 257 257 256 256 255 254 254 253 252 252 252 252 251 251 249 247 247 247 246 247 246 245 244 243 243 243 242 242 243 243 242 242 242 242 242 241 241 242 243 243 245 246 245 244 243 244 243 241 241 241 240 232 228 231 233 233 232 227 227 231 231 231 234 236 239 242 245 246
280 278 276 274 273 271 270 270 269 268 267 265 264 263 262 261 260 259 259 258 257 257 256 256 255 255 254 253 252 252 251 251 251 251 250 248 248 248 247 247 247 245 244 243 242 242 241 241 241 242 242 241 241 242 241 241 241 242 243 244 245 246 245 243 240 240 240 238 238 240 240 235 228 230 233 233 230 226 226 231 234 232 231 234 236 240 244 247
282 280 278 276 275 273 272 271 270 270 269 268 266 265 264 262 261 260 259 258 258 257 256 255 255 254 254 253 252 252 250 250 250 250 250 249 248 247 246 246 246 246 244 243 242 241 241 240 241 242 242 242 242 241 242 241 241 242 243 244 244 244 243 240 238 238 238 236 236 237 239 236 230 230 233 233 230 225 223 228 233 232 230 232 234 237 241 244
284 283 281 280 278 277 275 273 272 271 270 269 268 267 266 264 263 262 260 259 259 257 256 256 255 254 253 253 252 251 250 249 248 249 249 249 249 248 246 245 246 245 244 243 243 241 240 240 240 241 242 242 242 242 242 242 242 242 243 245 246 245 243 240 238 236 235 234 233 234 236 235 231 231 232 233 233 228 224 225 228 229 228 230 232 236 239 241
287 286 284 283 282 280 279 277 276 274 273 271 270 269 268 266 265 264 262 261 260 259 257 256 255 254 253 253 252 251 250 249 248 247 248 248 248 248 246 245 245 245 244 244 243 242 241 240 240 240 241 241 241 242 243 243 243 244 244 246 246 245 243 241 238 235 233 233 231 232 233 232 231 232 231 232 235 232 227 225 226 227 228 229 231 236 240 242
291 289 287 286 284 283 281 280 278 277 275 274 272 271 269 268 266 265 264 263 262 260 259 258 256 255 253 253 252 251 250 249 248 247 246 247 247 247 246 245 245 244 244 244 244 244 243 241 240 240 241 241 241 242 243 244 244 244 244 244 244 244 243 240 238 235 233 232 230 230 231 231 232 234 234 233 234 233 230 228 227 227 230 233 234 238 242 244
294 292 290 288 286 285 283 281 280 278 277 275 274 272 270 269 267 265 264 263 262 261 260 259 258 256 254 253 253 251 250 250 248 247 246 245 245 245 245 244 244 243 242 241 241 243 243 242 241 240 240 239 240 241 241 242 243 243 242 242 242 242 241 238 236 234 231 231 230 228 229 231 234 236 235 234 233 234 233 231 231 231 232 236 238 239 241 244
296 294 292 290 288 286 284 283 281 279 278 276 275 273 272 270 268 267 265 264 262 261 260 259 258 257 256 254 253 252 251 250 248 246 245 245 244 244 244 243 243 243 242 240 239 239 240 241 240 239 239 238 238 239 239 240 242 242 241 241 241 240 239 235 233 232 230 229 228 228 229 231 234 236 237 235 232 233 235 234 236 237 237 239 240 239 240 243
297 295 293 291 288 286 284 283 281 280 278 277 275 274 272 271 269 268 266 265 263 261 260 259 258 257 256 255 254 253 253 252 249 246 245 244 244 243 243 243 242 242 241 240 239 238 238 239 239 238 238 237 237 236 236 238 240 241 240 239 240 240 237 233 230 229 228 227 226 227 229 230 231 234 237 236 232 232 235 237 238 240 241 241 241 242 243 244
299 297 295 292 290 288 286 283 282 280 278 276 275 273 272 270 269 268 267 266 264 262 261 259 258 257 256 255 254 253 253 252 249 247 245 244 242 242 241 241 241 240 240 240 239 239 238 238 237 237 236 235 234 234 233 236 238 240 239 236 237 238 236 232 228 226 226 225 225 226 227 226 227 232 235 235 235 234 235 238 239 241 243 244 244 247 248 247
301 298 296 294 292 290 287 285 283 281 279 277 275 273 271 269 268 267 266 265 264 263 262 260 258 256 255 254 253 253 251 250 249 247 245 244 242 241 240 240 240 239 238 238 238 237 236 235 234 235 235 234 234 233 232 235 237 238 238 235 234 236 234 232 228 224 223 224 224 225 226 224 226 232 233 232 236 236 235 237 240 242 244 246 248 248 248 248
301 299 297 295 293 291 289 287 285 283 281 279 277 275 272 270 268 266 264 263 262 262 261 260 258 256 254 253 252 252 250 249 249 247 246 244 243 241 240 240 239 238 237 236 236 235 234 233 233 234 235 234 233 233 232 234 235 235 237 236 233 234 233 232 230 224 222 223 222 224 226 225 227 233 233 230 234 236 235 237 240 242 243 243 243 242 243 243
301 299 297 295 293 291 290 288 286 285 283 281 279 277 274 272 270 267 265 263 261 260 259 259 258 257 254 252 251 250 249 249 248 247 246 243 242 241 240 239 238 237 237 235 234 233 231 231 232 233 233 233 232 232 232 233 234 234 236 237 233 233 233 230 230 226 224 222 219 224 227 226 227 233 234 230 233 236 236 238 239 240 241 239 238 238 240 240
302 300 299 297 295 293 292 290 288 286 285 283 281 279 276 274 271 269 267 264 262 260 258 257 256 255 254 252 250 249 249 248 247 246 244 242 241 240 239 237 236 235 235 234 233 231 229 229 230 231 231 231 232 232 232 232 233 233 235 236 234 233 233 229 228 228 227 224 219 224 230 227 226 231 233 233 235 237 236 237 238 239 239 238 238 240 242 242
306 304 303 301 299 297 295 293 291 288 286 284 282 280 277 275 272 270 267 264 262 260 258 256 255 253 252 250 248 248 247 245 244 243 243 242 240 239 238 236 234 233 232 231 231 230 228 227 229 229 228 227 228 230 231 231 232 232 233 235 235 234 233 228 227 227 227 225 222 227 233 229 225 229 233 234 237 238 237 237 237 237 235 235 236 239 242 243
310 309 307 305 304 302 299 297 294 291 288 285 282 278 275 273 271 269 266 264 261 259 257 255 254 252 250 248 246 246 244 242 241 242 242 241 239 237 236 235 233 230 228 227 227 227 226 226 227 227 226 224 224 226 228 229 230 231 232 234 235 235 233 227 226 227 225 224 225 230 236 232 225 226 233 236 239 240 240 238 237 236 234 235 236 236 239 241
313 312 311 309 308 306 303 300 297 294 291 287 283 279 276 272 269 267 265 262 260 258 256 254 252 251 249 247 245 243 241 239 239 240 240 239 237 235 234 233 232 228 225 223 224 224 224 225 226 225 224 222 221 222 225 227 227 228 229 231 232 233 232 228 227 227 224 224 228 231 236 236 228 226 232 238 241 243 243 241 239 238 237 239 239 236 236 238
317 316 315 314 313 310 306 303 300 297 294 290 286 282 278 274 271 268 265 263 261 258 256 254 252 250 246 244 243 241 239 236 235 236 237 236 233 232 233 232 230 227 223 221 221 222 222 223 223 223 223 222 221 222 225 228 227 226 228 230 232 233 233 230 228 228 226 225 229 233 236 238 233 228 233 240 244 245 244 242 240 239 239 239 239 237 235 236
321 321 321 319 317 313 309 306 303 300 297 293 289 285 281 278 274 270 267 264 261 259 256 253 251 249 244 241 241 240 237 233 231 231 232 233 230 228 229 229 228 227 223 221 221 221 221 221 222 222 224 225 224 224 226 227 226 226 229 231 234 235 235 232 228 229 229 228 230 235 239 241 237 231 234 241 245 244 239 235 234 237 239 239 238 236 235 236
326 327 326 323 319 315 311 307 303 301 299 296 293 290 287 285 282 277 272 268 264 259 255 253 250 246 242 240 240 239 236 232 228 227 228 230 228 224 224 226 225 225 224 222 222 220 219 221 223 225 226 225 224 223 224 224 222 224 227 229 231 233 234 231 227 227 229 229 230 232 237 240 237 230 230 237 243 242 235 231 230 233 236 237 236 235 237 237
331 332 331 327 322 318 315 308 301 298 298 297 296 294 292 291 289 285 280 275 273 266 257 252 249 245 241 240 239 238 234 230 225 224 224 226 225 221 220 223 224 224 223 221 220 219 219 222 225 225 224 222 222 220 222 222 219 220 224 225 226 228 231 229 225 224 226 229 229 230 234 237 236 229 226 229 235 237 236 234 232 230 231 233 234 235 238 240
336 337 334 330 324 322 321 314 303 298 297 297 297 296 295 294 293 290 284 275 272 274 267 256 249 243 240 238 238 237 233 229 225 222 221 221 222 219 216 219 222 223 222 220 219 219 221 224 224 222 220 219 220 219 220 219 216 218 222 223 224 225 227 226 223 221 224 227 228 229 233 236 236 231 226 225 228 231 233 233 232 230 230 231 233 235 239 242
338 339 337 331 326 325 324 316 307 302 298 296 295 294 295 297 296 296 293 281 261 263 268 261 253 244 238 235 236 236 233 228 225 222 219 218 219 217 212 214 218 219 220 220 221 222 223 223 220 219 218 217 218 218 218 217 215 216 219 221 222 223 225 225 223 220 223 227 227 227 231 233 233 232 228 225 227 231 231 231 230 231 230 230 231 232 236 240
337 340 339 332 327 329 326 317 311 306 299 296 295 294 296 297 297 298 299 292 274 260 263 262 258 251 241 235 235 234 231 226 223 221 218 215 215 214 209 209 213 216 217 218 220 222 223 221 218 216 216 216 217 217 217 217 215 215 218 220 221 221 223 225 223 221 222 227 227 225 229 230 227 228 227 224 227 231 233 233 233 234 234 233 232 231 233 237
337 341 340 333 330 332 329 322 319 313 303 302 301 299 300 302 304 305 303 298 287 270 263 260 258 255 246 238 233 230 227 223 222 221 217 213 213 212 207 206 209 212 214 214 216 218 219 219 216 215 215 215 216 217 217 217 216 215 217 219 220 220 221 221 221 220 220 225 226 224 229 231 228 227 226 224 226 230 233 236 236 238 238 237 235 232 232 235
340 344 342 335 334 335 332 329 329 325 315 313 312 310 312 313 316 316 311 308 299 274 256 251 252 253 249 240 231 226 222 217 218 220 217 212 211 210 205 203 205 208 209 210 212 214 215 216 213 213 213 214 215 216 217 216 216 216 216 218 219 218 219 217 217 220 221 224 226 226 232 234 230 229 227 224 226 229 232 236 238 239 239 239 238 235 233 235
344 347 345 339 337 339 338 338 341 340 332 329 328 328 329 329 328 325 323 332 337 272 217 232 238 238 243 237 226 221 217 211 212 216 215 211 211 209 205 202 202 204 205 207 209 210 213 214 211 210 210 211 213 214 214 214 214 214 214 215 216 217 218 215 216 220 222 224 226 227 233 235 231 228 228 225 225 228 230 234 239 240 240 240 239 238 235 234
347 351 350 344 343 346 349 350 353 354 350 352 353 347 341 338 340 340 346 19 31 50 135 253 236 225 236 233 221 216 211 207 208 210 210 209 208 208 205 201 201 202 203 205 207 207 210 212 209 207 209 209 210 212 213 213 212 212 211 212 214 215 214 210 214 221 222 223 224 226 232 236 233 226 227 227 226 227 230 232 237 241 242 242 241 241 237 233
351 356 355 350 351 357 360 358 1 6 8 9 1 350 346 350 0 3 360 9 14 25 58 311 248 222 234 230 215 212 206 203 204 204 205 204 203 204 204 201 200 202 201 202 205 205 208 210 207 206 208 208 208 209 210 212 212 210 208 210 211 212 208 205 211 217 220 223 222 224 230 236 235 226 223 227 226 227 228 228 232 237 240 240 239 239 235 234
354 360 1 357 358 3 5 8 14 18 14 5 358 357 360 6 10 5 360 2 9 25 29 354 266 221 232 220 205 206 201 200 202 202 200 198 198 199 200 200 199 200 199 200 202 204 206 207 204 203 205 207 208 208 209 210 211 208 206 208 209 209 206 205 210 212 218 223 220 221 229 235 236 227 221 225 225 225 225 224 229 234 237 238 239 239 236 235
357 3 6 4 5 7 14 23 23 14 7 4 5 6 8 11 7 4 6 5 8 25 39 24 348 229 225 206 195 200 198 197 199 199 197 195 193 193 196 198 198 198 198 198 200 201 204 206 202 200 202 204 205 205 207 209 208 205 203 204 206 206 204 204 208 210 218 223 217 216 226 234 237 230 222 224 224 222 223 224 228 233 235 236 238 239 239 238
359 6 10 10 13 20 29 28 17 11 9 6 8 11 15 16 12 9 8 7 15 34 39 20 316 213 207 204 199 196 195 195 195 196 197 196 193 191 193 195 196 196 196 197 198 198 202 203 200 199 201 202 202 201 203 205 204 201 199 201 202 202 201 203 206 210 218 222 215 211 222 233 237 233 224 223 223 220 220 221 223 227 229 231 234 237 239 240
2 9 14 15 20 29 30 21 15 16 13 3 8 17 21 19 13 12 14 18 29 42 47 65 97 105 152 213 209 196 192 191 191 193 196 196 193 190 191 193 194 195 194 195 197 198 199 200 198 199 199 199 200 200 201 201 201 198 196 199 201 200 201 204 207 211 218 220 212 206 217 229 235 234 226 223 224 220 218 218 219 222 224 227 231 235 237 239
4 10 16 20 23 25 21 14 12 15 14 6 12 20 22 20 16 20 30 39 49 61 71 85 92 91 87 147 203 198 191 188 189 191 193 194 193 191 191 191 191 193 193 194 197 198 197 197 197 199 199 198 198 199 200 202 201 197 195 199 202 203 205 206 207 211 217 217 208 203 214 224 231 233 228 224 226 224 221 221 221 222 223 222 223 228 232 236
6 10 17 23 28 29 23 14 6 8 11 10 15 21 22 23 26 35 46 57 72 81 86 87 79 76 85 95 130 187 190 189 188 188 191 192 192 192 192 191 190 191 192 193 196 197 197 197 197 198 199 199 198 197 198 201 201 197 195 199 202 203 205 207 208 212 217 216 208 205 214 222 227 231 229 224 225 227 227 228 226 222 220 217 218 224 229 229
7 10 14 20 29 32 28 18 8 6 8 12 20 25 25 23 26 34 42 53 72 84 93 90 77 86 103 107 122 169 186 189 189 187 189 189 190 192 192 191 191 191 192 192 193 195 196 197 196 197 198 199 198 196 197 199 198 195 196 200 202 201 202 206 207 212 217 216 211 209 214 221 224 227 228 226 224 227 232 234 231 225 221 221 224 227 225 217
6 9 12 14 18 22 23 19 14 11 12 19 24 23 20 19 19 26 37 42 40 51 84 82 77 116 129 122 139 178 185 185 189 188 188 188 188 190 191 191 191 191 192 192 193 194 195 195 195 194 196 198 198 195 197 200 197 195 197 200 199 197 200 204 206 211 215 215 214 212 212 218 222 223 226 226 223 224 231 233 231 226 223 222 223 221 211 203
5 7 10 11 11 11 11 12 15 16 16 21 24 18 12 13 19 29 37 40 39 46 64 57 64 124 148 136 145 184 189 177 183 187 187 186 186 189 191 191 190 190 190 191 193 195 195 194 194 193 192 195 197 195 196 199 197 196 199 200 198 197 199 202 204 208 213 214 214 213 212 214 219 221 223 225 224 222 225 228 224 216 214 212 207 204 200 199
6 6 9 12 13 12 9 9 14 17 17 19 24 24 15 13 25 35 31 44 61 55 48 34 44 117 151 146 141 169 177 170 176 183 186 185 184 187 190 190 188 188 187 188 192 194 194 193 193 193 191 191 195 196 196 196 194 194 197 198 198 200 202 203 204 207 211 214 215 215 213 214 216 218 220 224 224 220 216 220 222 213 209 209 205 204 206 210
9 7 8 11 14 15 15 15 15 17 21 23 26 30 23 12 19 29 31 47 54 34 28 33 39 96 137 143 139 146 159 169 171 177 185 187 184 184 188 189 187 185 183 184 189 191 191 191 190 189 190 191 194 197 198 196 195 194 193 191 194 201 203 204 207 209 211 215 217 217 216 216 215 215 219 223 224 220 213 213 222 222 216 213 214 216 219 222
11 10 10 11 13 15 17 21 19 17 23 28 26 25 21 12 11 17 27 41 30 23 29 49 69 90 103 105 102 125 156 167 160 169 184 187 185 184 185 186 186 183 180 181 186 186 186 188 187 184 187 192 194 196 198 197 196 196 192 188 192 198 201 203 207 210 211 214 218 219 218 219 218 216 218 223 224 224 219 214 218 223 220 216 220 223 223 222
12 12 13 15 15 14 15 18 19 19 22 25 24 20 18 16 10 8 19 21 12 22 48 75 86 88 87 81 77 102 137 146 148 166 182 185 185 185 181 181 184 183 177 176 179 181 182 184 183 181 184 189 192 193 195 196 196 195 192 190 193 197 201 204 207 210 212 214 218 221 219 219 221 219 217 221 225 227 223 216 216 220 220 220 224 226 220 215
12 14 15 16 17 17 16 16 17 18 20 22 23 22 21 23 20 14 20 12 8 33 73 89 87 86 86 79 78 106 126 132 145 162 178 182 183 183 179 177 180 178 172 170 172 176 178 177 178 181 183 185 187 187 189 193 194 193 191 192 194 198 201 204 208 212 214 216 220 223 222 222 224 224 220 219 224 226 222 218 218 218 220 222 223 222 217 214
9 13 16 17 17 18 19 18 16 16 19 22 23 22 24 28 28 26 27 21 22 46 80 96 91 84 81 80 88 112 122 130 147 159 172 177 174 178 179 178 177 171 165 164 168 173 175 173 175 179 180 179 179 180 184 189 193 191 190 192 195 197 200 202 206 211 214 217 221 225 226 225 226 228 226 223 223 222 220 217 215 215 217 219 216 213 213 215
8 10 14 17 18 19 20 19 17 16 18 21 22 23 26 27 24 22 25 31 39 57 85 103 94 80 78 87 96 111 122 134 148 154 161 163 166 177 179 177 174 166 159 160 165 168 170 172 176 177 177 179 179 181 184 187 190 189 188 192 195 197 199 201 204 209 211 215 221 224 227 228 229 230 232 231 227 224 223 223 219 215 213 212 211 209 211 215
10 10 11 13 17 21 22 21 19 18 17 18 20 22 25 28 26 23 25 39 55 70 90 98 93 97 109 110 111 122 134 142 146 145 149 153 166 178 176 172 169 162 157 160 164 167 169 172 176 175 176 182 182 182 185 187 187 186 186 191 195 197 199 200 203 207 209 211 217 221 222 223 225 226 229 229 226 224 224 226 225 220 213 210 211 211 211 214
10 11 10 11 14 19 23 22 21 18 14 15 18 19 23 25 24 26 31 45 61 69 78 89 99 107 112 120 130 139 145 147 144 142 150 159 168 172 168 164 162 160 160 163 165 168 169 170 174 174 176 183 185 183 185 186 186 185 185 189 193 196 199 200 202 206 208 208 210 214 213 209 207 211 215 214 211 211 216 220 222 218 210 208 212 211 211 214
7 8 8 11 14 18 22 23 24 22 18 15 13 13 16 17 16 24 36 48 59 64 75 96 105 102 108 130 143 145 147 148 144 143 156 162 162 160 156 155 157 160 165 166 167 170 169 168 173 177 178 183 187 188 187 186 185 184 184 187 191 196 199 200 202 207 209 209 208 210 214 211 205 206 211 212 208 206 205 207 210 208 205 207 212 211 211 214
6 4 3 9 15 19 21 22 25 27 26 23 19 13 12 12 14 22 32 40 49 57 77 100 97 97 122 145 148 146 147 143 138 146 160 160 157 154 152 154 159 164 168 168 170 173 170 169 175 180 182 184 188 190 190 187 185 183 184 187 191 195 198 201 205 208 210 211 210 211 216 219 215 211 213 216 214 209 201 198 200 201 202 206 210 211 213 215
7 3 1 7 15 19 21 21 24 28 28 26 26 24 23 26 30 36 37 37 42 49 72 103 99 109 131 142 147 150 146 135 133 153 162 158 155 153 154 158 163 166 168 170 173 176 173 172 177 181 184 186 188 191 192 189 184 183 185 188 191 193 198 202 207 211 212 212 213 213 215 222 221 212 207 210 209 204 199 196 197 199 201 205 208 211 214 217
5 5 3 4 11 17 21 22 24 29 30 29 28 29 30 31 30 27 22 19 25 42 80 111 115 128 136 139 147 151 144 134 139 160 161 156 155 155 157 163 167 168 169 171 175 178 176 176 179 181 183 186 188 191 192 188 186 186 188 189 191 195 199 203 208 214 215 214 216 215 215 219 220 211 206 206 202 199 198 197 199 202 203 205 208 210 214 218
358 2 2 2 7 14 19 22 23 26 28 27 25 21 19 19 18 17 15 17 28 58 113 124 121 130 133 133 145 150 145 141 149 159 158 157 157 155 157 165 170 170 171 174 178 179 176 175 178 181 184 187 189 191 192 192 192 194 192 192 195 199 202 204 208 214 216 215 215 216 216 218 218 216 214 209 201 196 196 198 203 208 210 211 211 213 215 218
Height
5719 5718 5717 5716 5714 5714 5713 5712 5712 5711 5711 5711 5710 5710 5710 5711 5711 5711 5712 5712 5712 5713 5713 5714 5715 5716 5717 5719 5720 5722 5725 5727 5728 5730 5732 5734 5734 5735 5738 5739 5741 5744 5746 5747 5749 5751 5754 5756 5757 5759 5761 5763 5765 5767 5769 5771 5773 5774 5775 5776 5779 5784 5789 5795 5799 5800 5803 5805 5804 5804 5804 5804 5805 5807 5810 5812 5815 5818 5819 5819 5819 5819 5821 5823 5826 5828 5829 5831
5714 5712 5711 5710 5709 5708 5707 5706 5705 5705 5704 5704 5704 5703 5703 5703 5703 5704 5705 5705 5705 5706 5706 5707 5708 5709 5710 5712 5713 5715 5718 5720 5722 5723 5724 5727 5728 5730 5733 5735 5735 5738 5741 5741 5743 5746 5748 5750 5752 5753 5756 5758 5761 5763 5764 5767 5768 5769 5771 5773 5776 5782 5787 5792 5795 5796 5799 5801 5801 5801 5801 5802 5803 5804 5806 5808 5811 5814 5816 5816 5817 5817 5818 5820 5824 5826 5827 5829
5708 5707 5706 5704 5703 5702 5701 5700 5699 5698 5698 5697 5697 5696 5696 5696 5696 5697 5697 5697 5698 5699 5699 5700 5701 5702 5703 5705 5706 5709 5711 5714 5716 5716 5718 5721 5722 5724 5728 5729 5730 5733 5735 5736 5738 5740 5742 5745 5747 5749 5751 5754 5757 5759 5760 5763 5764 5766 5768 5769 5774 5779 5783 5787 5789 5792 5795 5797 5798 5798 5798 5800 5801 5801 5802 5804 5807 5809 5812 5813 5814 5815 5815 5818 5821 5824 5825 5826
5703 5702 5700 5699 5698 5696 5695 5694 5693 5692 5691 5691 5690 5689 5689 5689 5689 5689 5689 5690 5690 5691 5691 5692 5694 5695 5696 5697 5699 5702 5704 5707 5708 5709 5712 5714 5716 5719 5722 5723 5724 5727 5729 5731 5733 5735 5737 5740 5742 5745 5747 5750 5753 5755 5756 5758 5761 5762 5764 5767 5772 5776 5779 5783 5786 5789 5791 5793 5795 5794 5795 5797 5797 5798 5799 5801 5804 5806 5808 5810 5810 5811 5812 5815 5818 5820 5822 5823
5698 5697 5695 5694 5692 5691 5689 5688 5687 5686 5685 5684 5683 5683 5682 5682 5682 5682 5682 5682 5682 5683 5683 5684 5686 5687 5688 5690 5692 5695 5697 5698 5701 5703 5705 5707 5709 5712 5715 5716 5718 5721 5724 5726 5728 5730 5732 5735 5738 5740 5743 5746 5749 5751 5753 5756 5758 5760 5763 5766 5769 5771 5775 5779 5782 5785 5787 5789 5791 5791 5792 5793 5793 5795 5797 5799 5801 5804 5805 5805 5807 5808 5809 5811 5815 5817 5819 5819
5694 5692 5690 5689 5687 5685 5684 5682 5681 5680 5679 5677 5676 5676 5675 5674 5674 5674 5674 5674 5675 5675 5675 5676 5678 5679 5681 5683 5685 5687 5689 5691 5695 5696 5697 5700 5702 5704 5707 5710 5712 5715 5718 5721 5724 5725 5728 5731 5733 5736 5739 5742 5745 5747 5750 5754 5756 5757 5760 5762 5764 5767 5771 5776 5778 5780 5783 5784 5787 5788 5789 5789 5791 5793 5795 5796 5799 5801 5801 5802 5804 5805 5806 5808 5812 5815 5816 5817
5689 5687 5685 5683 5681 5680 5678 5676 5674 5673 5672 5670 5669 5668 5667 5667 5666 5666 5666 5666 5666 5666 5667 5668 5669 5671 5673 5676 5677 5679 5683 5684 5686 5688 5690 5692 5694 5697 5700 5703 5706 5709 5712 5715 5718 5721 5723 5726 5729 5731 5734 5738 5740 5744 5747 5750 5752 5753 5756 5758 5760 5763 5767 5772 5774 5776 5778 5780 5783 5784 5784 5786 5789 5790 5791 5794 5796 5797 5798 5800 5801 5803 5804 5806 5810 5812 5812 5814
5683 5681 5679 5677 5675 5674 5671 5669 5668 5666 5664 5663 5662 5660 5660 5659 5658 5658 5658 5658 5658 5658 5659 5660 5661 5663 5665 5668 5669 5673 5676 5675 5676 5680 5683 5685 5688 5690 5693 5696 5700 5703 5706 5709 5712 5714 5717 5720 5724 5726 5729 5733 5737 5741 5744 5746 5747 5748 5751 5755 5757 5760 5764 5768 5769 5771 5774 5776 5778 5779 5781 5784 5786 5787 5787 5791 5794 5794 5795 5798 5800 5801 5802 5804 5807 5808 5809 5811
5678 5676 5673 5671 5669 5667 5665 5663 5660 5659 5656 5655 5653 5652 5651 5650 5649 5649 5649 5649 5649 5650 5651 5651 5653 5654 5657 5659 5661 5666 5668 5665 5667 5672 5675 5678 5681 5683 5686 5690 5693 5697 5699 5702 5705 5708 5711 5715 5718 5721 5725 5730 5733 5736 5738 5740 5741 5743 5747 5752 5754 5757 5760 5763 5765 5767 5769 5771 5773 5775 5777 5780 5783 5782 5783 5788 5791 5791 5793 5796 5798 5799 5800 5802 5803 5805 5806 5808
5671 5669 5666 5663 5661 5659 5657 5654 5652 5651 5648 5647 5645 5643 5642 5641 5640 5640 5640 5640 5640 5641 5641 5642 5644 5645 5648 5650 5653 5660 5658 5655 5659 5663 5666 5669 5672 5676 5679 5682 5686 5690 5693 5696 5699 5702 5706 5710 5713 5716 5720 5723 5726 5729 5732 5734 5737 5739 5743 5749 5750 5752 5756 5758 5760 5763 5765 5767 5769 5770 5773 5776 5778 5777 5780 5786 5786 5788 5791 5793 5795 5797 5798 5799 5801 5802 5803 5806
5665 5662 5659 5656 5653 5650 5648 5645 5643 5641 5639 5637 5635 5634 5633 5632 5631 5630 5630 5630 5631 5631 5631 5633 5635 5637 5639 5641 5647 5651 5647 5647 5650 5653 5658 5661 5664 5668 5671 5675 5679 5682 5686 5689 5693 5697 5701 5704 5707 5710 5714 5717 5720 5724 5727 5730 5733 5736 5739 5744 5746 5748 5751 5753 5756 5759 5760 5762 5765 5767 5769 5771 5773 5772 5778 5783 5782 5784 5787 5790 5792 5794 5796 5797 5799 5800 5801 5803
5658 5655 5651 5648 5644 5641 5638 5635 5633 5631 5629 5626 5625 5623 5622 5621 5620 5620 5620 5621 5621 5621 5622 5623 5624 5628 5629 5634 5642 5640 5636 5640 5641 5643 5650 5653 5656 5660 5664 5668 5672 5675 5680 5683 5687 5691 5695 5698 5701 5704 5708 5713 5716 5720 5723 5725 5728 5732 5734 5738 5742 5744 5746 5749 5752 5755 5756 5758 5762 5763 5763 5765 5767 5769 5776 5780 5778 5780 5784 5787 5789 5791 5794 5795 5796 5797 5798 5799
5651 5647 5643 5639 5636 5632 5629 5625 5623 5620 5618 5615 5613 5611 5610 5609 5608 5609 5609 5610 5610 5611 5612 5612 5614 5617 5619 5627 5634 5627 5627 5632 5632 5636 5642 5645 5649 5652 5656 5660 5664 5669 5673 5677 5680 5684 5688 5691 5695 5699 5703 5707 5711 5714 5717 5721 5724 5728 5730 5733 5737 5739 5741 5745 5749 5752 5753 5755 5759 5758 5758 5761 5765 5768 5773 5776 5775 5777 5782 5785 5787 5789 5792 5793 5793 5794 5795 5796
5643 5639 5635 5630 5626 5623 5619 5615 5612 5609 5606 5604 5602 5600 5598 5597 5596 5597 5597 5598 5598 5599 5601 5602 5604 5606 5609 5621 5622 5616 5620 5623 5623 5629 5632 5636 5642 5644 5648 5652 5657 5661 5666 5670 5672 5676 5681 5684 5689 5693 5698 5703 5707 5710 5713 5717 5720 5724 5726 5727 5732 5734 5736 5742 5746 5749 5751 5753 5756 5754 5754 5759 5763 5765 5769 5771 5772 5776 5780 5782 5784 5787 5789 5790 5791 5791 5792 5793
5634 5629 5625 5620 5616 5612 5608 5605 5601 5599 5596 5593 5591 5588 5586 5585 5585 5585 5585 5586 5585 5586 5589 5590 5593 5594 5600 5612 5610 5607 5612 5613 5615 5620 5623 5630 5635 5637 5640 5644 5649 5653 5657 5661 5665 5669 5673 5677 5683 5687 5692 5697 5702 5705 5708 5712 5715 5718 5720 5722 5726 5728 5733 5739 5742 5745 5749 5751 5753 5751 5751 5756 5761 5763 5765 5768 5770 5773 5777 5780 5783 5785 5787 5788 5788 5789 5789 5789
5624 5620 5615 5610 5606 5601 5597 5594 5590 5588 5585 5582 5579 5577 5574 5573 5573 5573 5573 5574 5573 5575 5577 5578 5581 5583 5591 5601 5600 5598 5600 5602 5607 5612 5616 5623 5627 5630 5632 5636 5641 5645 5649 5653 5657 5662 5667 5672 5677 5682 5687 5691 5695 5700 5703 5706 5710 5713 5715 5717 5721 5724 5729 5735 5739 5742 5747 5749 5750 5748 5748 5753 5759 5761 5763 5765 5767 5770 5774 5778 5781 5782 5784 5785 5785 5786 5785 5785
5615 5610 5605 5601 5596 5591 5587 5583 5579 5577 5574 5570 5568 5566 5563 5561 5561 5561 5562 5562 5562 5564 5565 5568 5569 5572 5582 5590 5588 5587 5589 5595 5601 5604 5609 5615 5620 5622 5624 5630 5634 5637 5642 5645 5650 5655 5660 5665 5671 5675 5680 5684 5689 5693 5696 5699 5702 5705 5708 5711 5716 5720 5726 5732 5736 5740 5744 5746 5746 5746 5746 5750 5756 5760 5761 5763 5765 5768 5772 5775 5777 5778 5780 5781 5781 5782 5783 5784
5607 5602 5597 5592 5587 5581 5576 5572 5569 5567 5564 5560 5558 5556 5553 5551 5551 5551 5552 5551 5552 5554 5555 5557 5558 5562 5573 5578 5574 5575 5580 5587 5593 5596 5601 5606 5613 5615 5618 5623 5627 5631 5635 5638 5643 5649 5653 5659 5664 5668 5673 5678 5682 5685 5688 5692 5697 5701 5705 5709 5714 5718 5723 5730 5735 5738 5741 5744 5744 5745 5745 5748 5754 5758 5760 5760 5762 5765 5769 5771 5773 5774 5775 5776 5777 5779 5781 5782
5599 5594 5589 5583 5578 5572 5566 5562 5558 5557 5555 5552 5549 5547 5544 5543 5542 5542 5542 5542 5543 5543 5544 5546 5547 5552 5562 5564 5562 5565 5570 5577 5584 5589 5592 5598 5604 5607 5611 5616 5619 5624 5628 5632 5637 5642 5646 5651 5655 5660 5667 5672 5676 5680 5684 5690 5696 5701 5705 5710 5714 5717 5721 5728 5733 5736 5739 5742 5743 5744 5744 5746 5752 5757 5758 5759 5760 5762 5765 5767 5768 5769 5770 5771 5773 5776 5778 5780
5593 5587 5582 5576 5570 5564 5559 5554 5550 5548 5548 5546 5543 5540 5537 5536 5535 5534 5534 5534 5533 5533 5534 5535 5536 5542 5551 5553 5553 5554 5559 5567 5576 5580 5584 5589 5595 5599 5603 5608 5612 5617 5622 5627 5632 5636 5640 5643 5649 5658 5664 5669 5673 5678 5682 5687 5694 5698 5702 5706 5710 5714 5718 5724 5730 5733 5735 5737 5740 5742 5742 5744 5749 5754 5756 5757 5757 5759 5761 5762 5764 5765 5766 5768 5770 5773 5775 5778
5587 5582 5576 5569 5563 5557 5553 5548 5543 5542 5541 5540 5538 5536 5533 5532 5530 5529 5528 5528 5525 5523 5525 5526 5526 5534 5542 5544 5543 5543 5548 5558 5567 5571 5576 5581 5586 5591 5597 5601 5605 5611 5617 5622 5625 5629 5633 5639 5649 5656 5660 5665 5670 5675 5679 5684 5690 5694 5697 5702 5706 5709 5713 5719 5725 5728 5730 5732 5735 5738 5739 5741 5746 5750 5753 5754 5754 5755 5757 5758 5760 5761 5763 5765 5767 5770 5772 5774
5584 5578 5571 5564 5557 5552 5548 5543 5538 5536 5536 5535 5534 5531 5529 5527 5526 5523 5523 5525 5523 5518 5517 5516 5518 5526 5532 5533 5532 5533 5542 5553 5560 5563 5567 5573 5579 5585 5590 5594 5600 5606 5611 5614 5618 5623 5629 5638 5647 5650 5655 5661 5665 5670 5675 5680 5686 5690 5693 5697 5701 5705 5709 5714 5719 5723 5726 5727 5731 5735 5736 5739 5743 5747 5749 5750 5751 5752 5753 5755 5756 5757 5759 5762 5765 5768 5769 5771
5581 5574 5567 5560 5554 5549 5544 5538 5533 5531 5531 5531 5529 5527 5525 5523 5521 5519 5517 5518 5520 5517 5510 5508 5512 5517 5521 5524 5523 5527 5540 5549 5553 5556 5561 5567 5572 5577 5583 5589 5595 5599 5603 5609 5616 5621 5628 5636 5641 5645 5651 5657 5660 5665 5670 5675 5681 5685 5687 5691 5696 5702 5705 5709 5714 5719 5722 5724 5728 5732 5733 5735 5739 5742 5744 5746 5747 5748 5749 5750 5751 5753 5756 5759 5761 5764 5766 5768
5578 5571 5563 5556 5550 5546 5540 5534 5529 5527 5527 5526 5525 5523 5521 5519 5516 5514 5512 5510 5513 5512 5505 5504 5507 5510 5513 5517 5518 5525 5535 5542 5546 5549 5553 5560 5565 5570 5577 5583 5587 5592 5599 5607 5613 5619 5626 5632 5636 5641 5647 5651 5655 5660 5665 5671 5676 5680 5683 5688 5694 5699 5703 5707 5712 5717 5720 5720 5723 5727 5728 5729 5733 5736 5739 5743 5744 5744 5745 5746 5748 5750 5753 5756 5758 5761 5763 5764
5575 5567 5559 5552 5547 5543 5536 5530 5526 5524 5523 5523 5522 5520 5518 5516 5513 5510 5506 5504 5504 5503 5500 5502 5503 5504 5507 5510 5514 5520 5527 5535 5540 5541 5545 5553 5558 5564 5571 5576 5581 5589 5597 5603 5608 5614 5621 5626 5633 5638 5643 5648 5652 5657 5662 5668 5673 5677 5681 5686 5692 5697 5701 5706 5710 5713 5715 5715 5718 5723 5723 5724 5730 5733 5736 5740 5741 5741 5742 5743 5745 5747 5750 5753 5755 5758 5760 5762
5572 5564 5556 5549 5545 5540 5533 5528 5525 5522 5521 5520 5519 5518 5515 5513 5510 5506 5501 5497 5494 5493 5495 5499 5500 5501 5503 5504 5509 5514 5521 5530 5533 5533 5541 5549 5553 5559 5566 5571 5578 5585 5591 5597 5602 5609 5615 5621 5628 5633 5639 5645 5649 5654 5661 5666 5671 5676 5680 5685 5689 5694 5698 5702 5706 5708 5710 5711 5715 5720 5719 5720 5727 5730 5734 5738 5738 5738 5739 5741 5743 5745 5748 5751 5753 5756 5757 5760
5569 5561 5553 5546 5542 5537 5532 5527 5524 5522 5520 5519 5518 5516 5514 5511 5508 5504 5499 5494 5491 5490 5493 5496 5497 5499 5498 5499 5504 5509 5516 5522 5524 5529 5538 5544 5549 5556 5562 5567 5573 5579 5584 5590 5596 5605 5612 5616 5623 5629 5635 5640 5645 5651 5657 5662 5668 5672 5677 5682 5686 5691 5695 5699 5703 5704 5706 5709 5713 5715 5714 5715 5721 5726 5730 5733 5734 5734 5736 5738 5740 5742 5745 5749 5751 5753 5755 5758
5567 5559 5551 5545 5539 5535 5531 5528 5525 5522 5520 5518 5517 5515 5513 5510 5507 5503 5499 5496 5494 5493 5494 5494 5494 5495 5495 5496 5501 5505 5510 5515 5519 5526 5532 5539 5546 5553 5559 5565 5570 5574 5579 5585 5594 5603 5607 5611 5620 5626 5630 5635 5642 5648 5654 5659 5663 5669 5675 5680 5683 5688 5693 5698 5700 5701 5704 5707 5708 5710 5710 5710 5715 5722 5727 5728 5730 5732 5734 5737 5738 5740 5744 5747 5749 5751 5753 5756
5565 5557 5550 5544 5538 5534 5531 5528 5525 5523 5521 5519 5517 5515 5513 5509 5506 5503 5500 5498 5497 5495 5494 5493 5493 5494 5494 5495 5498 5502 5506 5511 5515 5520 5527 5535 5542 5549 5556 5562 5566 5570 5577 5585 5592 5598 5602 5609 5618 5624 5628 5634 5640 5645 5650 5655 5660 5668 5674 5678 5681 5685 5690 5694 5696 5698 5700 5701 5703 5707 5707 5707 5710 5718 5722 5723 5727 5731 5733 5735 5737 5739 5742 5744 5746 5748 5750 5753
5564 5557 5550 5544 5539 5535 5532 5529 5527 5525 5523 5521 5518 5515 5513 5509 5507 5505 5502 5500 5498 5496 5495 5494 5494 5494 5493 5494 5497 5500 5503 5507 5511 5518 5524 5531 5538 5545 5551 5557 5562 5568 5575 5581 5587 5594 5600 5606 5613 5619 5626 5632 5637 5642 5648 5652 5658 5666 5671 5675 5678 5682 5686 5690 5692 5695 5695 5694 5699 5704 5704 5704 5706 5713 5718 5720 5724 5729 5732 5734 5735 5737 5740 5742 5744 5745 5748 5751
5564 5557 5550 5545 5540 5536 5533 5531 5529 5527 5524 5522 5519 5516 5513 5511 5508 5506 5503 5501 5499 5497 5496 5495 5494 5493 5493 5495 5497 5499 5501 5505 5510 5516 5522 5526 5532 5539 5545 5552 5559 5565 5572 5577 5583 5591 5596 5601 5609 5617 5622 5626 5632 5639 5644 5649 5655 5662 5667 5671 5674 5678 5683 5686 5688 5691 5689 5688 5696 5702 5702 5701 5701 5708 5716 5718 5722 5727 5730 5733 5734 5735 5738 5739 5742 5744 5746 5748
5564 5557 5551 5546 5541 5538 5536 5534 5531 5528 5526 5523 5520 5518 5515 5513 5510 5507 5504 5502 5499 5497 5496 5495 5494 5494 5495 5497 5498 5499 5501 5505 5510 5516 5521 5525 5531 5537 5543 5549 5556 5563 5569 5574 5581 5587 5592 5599 5608 5613 5616 5621 5627 5633 5638 5643 5649 5656 5661 5665 5669 5673 5677 5680 5681 5683 5682 5685 5694 5700 5700 5698 5698 5705 5713 5716 5720 5724 5728 5730 5731 5733 5734 5737 5739 5741 5744 5746
5565 5559 5553 5548 5544 5541 5539 5536 5533 5530 5528 5525 5522 5519 5516 5514 5511 5509 5506 5503 5501 5499 5498 5496 5496 5496 5497 5498 5499 5500 5502 5505 5510 5515 5520 5525 5531 5536 5541 5547 5554 5560 5566 5572 5578 5583 5588 5596 5603 5606 5611 5617 5623 5628 5632 5636 5642 5649 5655 5659 5663 5666 5669 5671 5674 5677 5679 5683 5692 5698 5698 5695 5695 5702 5710 5714 5717 5722 5725 5726 5728 5730 5732 5734 5737 5739 5742 5744
5566 5560 5555 5550 5546 5543 5541 5538 5535 5532 5530 5527 5523 5520 5518 5515 5513 5510 5508 5505 5503 5502 5501 5499 5499 5499 5499 5500 5501 5501 5503 5506 5510 5515 5520 5525 5530 5535 5540 5545 5552 5558 5564 5569 5575 5581 5587 5593 5599 5604 5609 5614 5620 5626 5632 5637 5641 5647 5653 5657 5659 5663 5666 5669 5672 5675 5677 5682 5691 5695 5693 5692 5694 5700 5707 5712 5715 5719 5721 5723 5725 5728 5729 5731 5734 5736 5739 5742
5567 5562 5557 5553 5548 5544 5542 5539 5537 5534 5531 5528 5525 5522 5519 5517 5515 5512 5510 5507 5506 5504 5504 5502 5501 5501 5501 5501 5502 5504 5506 5508 5511 5515 5520 5525 5531 5536 5541 5546 5551 5556 5561 5567 5574 5581 5588 5593 5599 5604 5609 5614 5619 5625 5630 5635 5641 5647 5652 5653 5656 5661 5666 5669 5672 5674 5677 5682 5689 5691 5690 5691 5694 5699 5705 5710 5713 5715 5718 5721 5724 5726 5727 5729 5731 5733 5737 5740
5568 5563 5559 5555 5550 5545 5542 5540 5538 5535 5532 5529 5526 5523 5521 5518 5516 5514 5512 5509 5508 5507 5506 5505 5504 5504 5504 5504 5505 5507 5509 5511 5513 5516 5521 5526 5531 5536 5542 5547 5551 5556 5560 5566 5573 5580 5586 5592 5597 5603 5609 5614 5618 5623 5627 5630 5636 5643 5647 5649 5654 5661 5665 5668 5672 5675 5677 5682 5686 5688 5689 5691 5694 5698 5703 5707 5711 5713 5716 5719 5723 5724 5725 5727 5730 5732 5735 5738
5569 5564 5560 5556 5552 5548 5545 5542 5540 5537 5534 5531 5528 5525 5522 5520 5518 5516 5514 5512 5510 5509 5509 5508 5507 5507 5506 5507 5509 5510 5511 5513 5515 5518 5522 5526 5531 5536 5542 5547 5552 5556 5561 5567 5573 5579 5585 5590 5596 5602 5608 5613 5618 5622 5626 5629 5635 5640 5644 5648 5654 5660 5663 5667 5671 5673 5675 5679 5682 5685 5688 5690 5693 5697 5701 5704 5709 5712 5714 5717 5720 5722 5723 5726 5728 5730 5733 5736
5570 5566 5561 5557 5553 5550 5547 5544 5542 5539 5536 5533 5529 5527 5525 5522 5520 5518 5516 5515 5513 5512 5512 5511 5510 5509 5509 5510 5512 5513 5514 5515 5517 5520 5523 5528 5532 5537 5542 5547 5552 5557 5562 5568 5574 5579 5584 5590 5595 5601 5606 5612 5616 5620 5623 5628 5634 5640 5645 5649 5654 5657 5660 5663 5666 5669 5672 5675 5679 5682 5685 5688 5691 5695 5699 5702 5707 5710 5713 5715 5718 5720 5722 5724 5727 5729 5731 5734
5571 5567 5562 5559 5555 5552 5549 5546 5544 5541 5538 5535 5532 5529 5527 5525 5523 5521 5519 5518 5516 5515 5514 5513 5513 5513 5512 5513 5515 5516 5517 5518 5520 5523 5526 5529 5533 5537 5542 5547 5552 5556 5561 5568 5574 5579 5585 5590 5595 5600 5605 5609 5613 5616 5620 5626 5632 5637 5642 5648 5655 5658 5659 5662 5665 5667 5670 5673 5676 5680 5683 5685 5689 5694 5698 5701 5705 5709 5712 5714 5717 5719 5722 5724 5726 5728 5731 5733
5572 5568 5564 5560 5557 5554 5551 5548 5545 5543 5540 5537 5534 5532 5530 5527 5526 5524 5523 5521 5519 5518 5517 5516 5515 5515 5515 5517 5518 5518 5520 5521 5523 5526 5528 5531 5534 5537 5542 5547 5552 5556 5562 5567 5572 5578 5584 5590 5594 5600 5604 5607 5610 5615 5620 5625 5628 5632 5636 5644 5650 5653 5657 5662 5664 5666 5669 5672 5674 5678 5681 5684 5688 5693 5696 5700 5703 5707 5710 5713 5715 5718 5720 5723 5725 5728 5730 5732
5575 5570 5566 5562 5558 5556 5553 5550 5548 5545 5543 5540 5537 5534 5532 5530 5529 5527 5526 5524 5522 5521 5519 5518 5518 5518 5519 5520 5521 5521 5523 5524 5526 5528 5530 5532 5536 5538 5543 5548 5553 5556 5561 5566 5572 5578 5584 5589 5593 5597 5602 5607 5612 5617 5622 5625 5628 5632 5637 5641 5645 5649 5654 5658 5661 5664 5667 5670 5672 5676 5680 5683 5687 5691 5695 5698 5701 5705 5709 5712 5714 5716 5719 5721 5723 5726 5728 5730
5577 5573 5568 5564 5560 5557 5554 5552 5550 5547 5545 5542 5539 5537 5535 5533 5531 5530 5529 5527 5526 5524 5523 5522 5521 5521 5522 5523 5524 5524 5525 5527 5528 5530 5531 5533 5536 5539 5543 5549 5553 5557 5563 5569 5575 5580 5584 5588 5592 5597 5601 5606 5611 5616 5621 5626 5629 5634 5639 5641 5644 5648 5652 5655 5659 5662 5665 5668 5671 5673 5678 5682 5685 5689 5694 5696 5699 5703 5707 5711 5713 5715 5717 5719 5721 5723 5725 5727
5580 5576 5571 5566 5563 5560 5557 5554 5552 5549 5547 5544 5541 5539 5538 5536 5534 5533 5532 5530 5529 5528 5527 5526 5525 5525 5525 5527 5528 5527 5528 5529 5530 5532 5533 5535 5538 5541 5544 5548 5552 5558 5563 5569 5574 5579 5584 5589 5594 5597 5601 5606 5611 5617 5622 5625 5629 5632 5637 5640 5643 5647 5651 5655 5659 5662 5665 5668 5670 5673 5677 5681 5683 5687 5692 5695 5698 5701 5705 5709 5711 5713 5715 5718 5719 5721 5723 5725
5581 5578 5573 5569 5566 5563 5560 5557 5555 5552 5550 5547 5545 5543 5541 5539 5538 5536 5535 5533 5532 5531 5530 5529 5528 5528 5529 5531 5530 5530 5531 5532 5533 5534 5535 5538 5540 5543 5546 5550 5554 5559 5564 5570 5576 5582 5587 5591 5593 5597 5601 5605 5610 5614 5618 5621 5625 5630 5635 5638 5642 5646 5650 5654 5658 5661 5665 5667 5669 5672 5676 5680 5683 5686 5690 5694 5696 5699 5703 5706 5709 5711 5713 5715 5717 5719 5721 5722
5583 5578 5575 5572 5569 5566 5563 5560 5558 5555 5552 5550 5548 5546 5544 5542 5541 5539 5538 5537 5535 5534 5533 5533 5532 5532 5533 5533 5533 5533 5535 5536 5536 5537 5538 5541 5543 5546 5549 5553 5558 5562 5567 5572 5577 5583 5588 5591 5593 5597 5601 5604 5607 5610 5614 5618 5622 5628 5632 5636 5641 5644 5648 5652 5656 5659 5662 5666 5668 5671 5674 5678 5681 5684 5688 5690 5693 5696 5700 5703 5706 5708 5711 5713 5715 5717 5719 5721
5585 5581 5576 5573 5571 5568 5565 5562 5560 5557 5555 5553 5551 5549 5547 5545 5543 5542 5541 5539 5538 5537 5536 5536 5535 5535 5536 5536 5536 5536 5538 5538 5539 5540 5541 5544 5546 5548 5552 5557 5561 5565 5568 5572 5578 5582 5586 5590 5594 5599 5603 5606 5608 5610 5614 5618 5622 5626 5630 5634 5639 5643 5647 5650 5654 5657 5660 5664 5667 5669 5673 5676 5679 5683 5685 5687 5690 5693 5696 5698 5702 5705 5708 5711 5713 5715 5718 5719
5587 5583 5580 5576 5573 5569 5566 5564 5561 5559 5557 5556 5554 5552 5550 5548 5546 5545 5543 5542 5541 5540 5539 5538 5538 5538 5539 5539 5539 5539 5540 5540 5541 5543 5544 5546 5547 5550 5555 5560 5564 5567 5570 5574 5578 5582 5586 5590 5595 5599 5603 5606 5609 5612 5615 5619 5623 5627 5630 5634 5638 5642 5645 5649 5652 5655 5659 5662 5665 5668 5671 5675 5678 5681 5683 5685 5687 5690 5692 5695 5697 5700 5705 5708 5711 5713 5715 5717
5587 5584 5581 5579 5575 5572 5569 5566 5564 5561 5559 5558 5556 5554 5552 5551 5549 5548 5546 5545 5544 5544 5543 5542 5541 5541 5541 5542 5542 5542 5542 5543 5544 5546 5547 5547 5549 5553 5557 5562 5566 5568 5571 5575 5579 5583 5587 5591 5595 5599 5602 5605 5609 5613 5616 5619 5623 5627 5631 5634 5638 5641 5644 5647 5651 5654 5656 5660 5664 5667 5670 5673 5676 5679 5681 5683 5685 5687 5689 5692 5695 5697 5701 5705 5708 5711 5712 5714
5589 5586 5583 5581 5577 5574 5571 5569 5566 5564 5561 5560 5558 5556 5554 5553 5551 5550 5549 5548 5547 5546 5545 5545 5544 5543 5543 5543 5543 5544 5544 5546 5547 5548 5549 5549 5552 5555 5559 5563 5566 5569 5573 5576 5580 5584 5588 5591 5594 5598 5602 5605 5609 5612 5616 5620 5624 5627 5631 5634 5638 5641 5644 5647 5650 5652 5655 5659 5663 5665 5668 5670 5673 5677 5680 5682 5683 5686 5688 5690 5693 5696 5699 5703 5706 5708 5709 5711
5592 5589 5585 5582 5579 5576 5574 5572 5569 5566 5564 5562 5560 5558 5557 5555 5553 5552 5551 5550 5549 5549 5548 5547 5546 5545 5545 5545 5545 5546 5547 5548 5550 5551 5551 5553 5555 5559 5562 5565 5568 5571 5574 5578 5582 5585 5588 5591 5595 5598 5602 5605 5609 5612 5616 5620 5623 5627 5631 5634 5637 5640 5643 5646 5649 5651 5654 5657 5661 5663 5666 5668 5672 5676 5679 5680 5682 5684 5686 5689 5692 5695 5697 5700 5703 5705 5707 5709
5592 5590 5587 5584 5581 5579 5577 5575 5572 5570 5567 5566 5564 5562 5560 5558 5556 5555 5554 5552 5551 5550 5549 5549 5548 5548 5548 5547 5547 5548 5549 5551 5553 5553 5553 5555 5558 5561 5565 5568 5570 5574 5577 5580 5584 5586 5589 5592 5596 5599 5603 5606 5609 5612 5616 5620 5624 5627 5630 5633 5636 5639 5642 5645 5647 5650 5653 5656 5659 5662 5664 5667 5671 5674 5677 5678 5680 5682 5685 5688 5691 5693 5696 5698 5700 5702 5704 5706
5592 5590 5588 5586 5583 5581 5579 5577 5575 5573 5571 5569 5567 5564 5562 5560 5559 5557 5555 5553 5552 5551 5551 5551 5550 5550 5550 5550 5550 5551 5551 5552 5554 5555 5556 5558 5561 5564 5568 5571 5574 5577 5579 5582 5585 5587 5590 5594 5598 5601 5604 5607 5610 5613 5616 5620 5624 5627 5629 5632 5635 5638 5640 5644 5647 5649 5651 5654 5657 5660 5663 5666 5669 5672 5675 5677 5679 5681 5684 5686 5689 5692 5694 5696 5698 5700 5701 5702